Dewpoint
50 50 50 50 50 50 49 50 51 51 53 54 55 55 55 55 54 41 19 32 40 58 62 55 52 45 35 35 46 45 37 31 31 32 29 32 31 35 36 36 34 32 36 37 42
51 51 50 51 51 50 50 49 50 51 51 52 54 54 54 55 48 40 41 53 57 60 48 43 39 44 41 41 41 41 38 35 34 32 31 33 35 36 36 35 36 37 38 37 39
51 52 52 52 52 52 52 51 50 49 50 50 52 53 54 53 28 10 60 57 53 62 38 37 34 40 37 42 41 39 37 37 36 35 35 35 35 36 35 34 34 36 38 40 41
51 50 50 50 51 51 52 52 51 51 50 50 51 52 54 48 14 37 53 62 65 47 32 30 35 38 32 36 39 36 38 38 37 37 37 36 36 37 38 38 39 40 41 40 41
50 51 51 50 50 49 50 51 51 51 51 49 50 51 48 42 27 19 47 45 42 48 31 30 36 32 30 33 35 39 37 38 39 39 39 39 39 39 38 38 38 39 41 42 43
50 50 50 51 49 49 49 51 52 52 52 51 49 50 45 37 39 38 39 39 22 40 33 30 33 34 30 33 34 31 36 36 37 38 38 37 37 37 38 40 38 40 41 40 41
49 50 51 50 50 49 50 52 52 51 51 50 50 45 41 37 41 41 40 40 34 32 27 29 28 35 34 31 34 35 35 37 37 38 37 34 29 30 33 33 35 37 38 40 40
50 51 51 51 50 50 50 52 52 51 51 50 50 43 36 41 42 42 42 42 41 37 33 30 30 25 28 28 25 24 26 21 22 26 26 26 22 25 29 32 34 36 37 37 39
50 51 51 51 50 50 51 52 50 50 50 48 44 41 33 42 38 41 43 38 31 33 27 20 34 30 26 24 24 25 19 21 21 24 23 28 23 23 29 31 33 34 35 36 38
49 51 52 51 51 51 52 50 48 48 44 43 40 35 32 28 35 36 38 40 33 23 22 17 27 24 24 22 18 20 21 21 21 21 21 19 23 26 29 30 33 34 35 37 38
50 51 51 51 50 51 49 42 37 38 38 34 33 30 29 30 32 28 36 37 35 19 16 16 18 19 17 22 23 23 23 23 24 21 19 19 22 28 29 31 31 33 35 38 41
50 50 51 50 50 50 44 38 38 38 34 34 36 34 35 34 32 27 31 27 26 18 17 17 16 17 19 17 19 21 22 21 21 20 22 22 24 27 29 29 30 35 36 38 40
51 51 50 50 51 43 42 40 41 42 35 32 34 34 34 35 34 31 31 25 20 18 15 15 14 15 17 17 19 20 18 20 20 21 23 24 23 23 25 32 31 32 35 38 40
51 51 51 51 42 42 39 41 44 43 30 24 28 31 31 34 31 33 28 24 19 16 16 13 13 13 14 16 20 18 20 20 20 22 16 25 19 25 25 27 28 30 36 38 39
51 50 50 49 44 39 39 44 43 40 10 13 27 33 24 27 26 25 30 26 24 15 16 14 12 13 14 16 21 19 20 23 23 24 24 22 22 22 26 25 26 29 30 37 39
50 49 49 45 44 42 44 44 41 28 12 16 22 23 17 20 23 28 27 26 24 24 15 14 14 11 12 17 23 24 23 25 26 24 20 21 23 21 23 24 24 30 33 36 42
50 48 46 44 40 43 44 40 27 17 17 18 22 22 15 18 22 26 27 25 17 22 20 13 11 13 11 16 22 26 26 18 17 18 17 21 22 23 23 23 27 30 32 39 47
49 48 44 44 46 46 43 34 20 14 18 22 23 18 9 19 22 24 26 24 24 22 20 15 11 10 13 12 19 25 24 17 18 18 15 25 20 22 29 28 28 32 36 41 48
48 43 42 43 44 44 37 25 13 19 24 23 21 16 14 17 19 22 25 32 27 23 22 19 16 14 13 12 16 22 21 21 16 25 21 24 28 31 32 32 34 34 37 43 48
41 40 41 45 46 45 34 23 24 26 25 24 18 17 16 16 19 22 26 37 33 32 32 26 20 17 12 12 13 14 18 19 17 14 13 16 24 24 30 30 32 34 39 44 48
42 37 41 45 45 38 29 25 26 27 27 25 23 22 21 17 24 26 26 29 35 33 33 29 23 19 14 15 12 16 18 19 21 18 14 11 13 33 33 33 32 34 41 45 47
41 32 40 46 36 35 30 28 32 28 28 27 28 27 26 25 22 24 28 30 35 35 33 34 31 19 17 16 17 16 18 22 14 21 16 21 17 32 36 34 35 34 41 45 47
35 34 41 44 30 29 26 27 29 28 27 27 26 25 25 24 25 26 30 32 34 32 35 36 27 20 18 19 19 17 17 21 26 27 21 13 16 30 36 35 35 38 42 46 48
38 31 36 41 36 31 28 24 26 28 28 28 28 28 27 24 25 25 30 31 35 32 39 36 29 26 14 19 21 18 17 18 22 18 20 19 14 22 24 31 37 41 44 45 47
38 30 35 30 31 32 28 27 26 26 29 30 28 30 30 25 24 29 31 34 35 36 35 34 28 26 25 25 26 18 15 15 17 18 17 19 19 19 29 29 36 42 45 46 47
36 35 36 33 32 30 28 25 26 26 28 25 28 28 26 24 26 25 27 29 33 35 30 33 27 28 25 23 23 22 20 17 16 16 17 17 18 22 25 30 38 42 44 45 46
41 43 38 32 31 31 29 29 30 35 31 30 30 32 28 26 28 29 30 29 29 31 32 31 29 28 22 25 24 20 21 21 18 18 18 16 21 20 23 31 38 44 44 44 46
Lifted_Index
14 14 15 15 15 15 14 14 14 13 13 12 11 10 10 10 9 7 4 4 5 6 4 3 3 3 2 2 2 2 2 3 3 2 2 2 2 2 2 2 2 2 1 1 0
14 14 14 14 14 14 14 14 14 13 13 12 11 11 11 10 9 6 5 5 5 6 5 4 4 3 3 2 2 2 3 3 2 2 2 2 2 2 2 2 2 2 1 1 1
14 14 14 13 13 14 14 14 13 13 13 13 12 12 11 10 8 6 6 5 5 5 5 5 4 4 2 2 2 3 3 3 2 2 2 2 2 3 3 3 2 1 1 1 1
14 14 14 14 14 14 14 14 14 14 14 14 13 12 12 10 8 8 7 6 5 4 4 3 3 3 2 2 2 3 3 3 2 2 2 2 3 3 3 2 2 1 1 1 1
15 15 15 15 15 15 15 14 14 14 14 14 14 13 12 10 9 10 9 7 6 5 4 3 2 2 2 2 2 3 3 3 2 2 2 2 3 3 3 2 1 1 1 1 1
16 15 15 15 16 16 15 15 14 14 14 15 15 14 13 11 11 11 10 9 8 7 5 4 3 2 2 2 3 3 3 3 2 2 2 2 3 3 3 2 2 2 2 2 2
16 16 16 16 16 16 16 15 15 15 15 15 15 15 14 12 12 12 11 10 9 8 7 6 5 4 3 3 3 3 3 3 3 3 3 3 4 4 3 3 2 2 2 2 3
16 16 16 16 16 16 16 16 16 16 15 15 15 15 14 14 13 12 11 10 10 9 9 8 7 6 5 4 3 3 3 3 3 3 3 3 4 4 3 3 3 3 3 3 3
16 16 16 16 16 16 16 16 16 16 16 16 16 16 15 15 14 13 12 10 10 10 9 8 7 6 5 4 3 3 3 3 3 3 3 3 3 3 3 3 3 3 3 3 3
16 16 16 16 16 16 17 17 17 16 16 16 17 16 16 15 15 13 12 11 10 9 9 8 7 6 5 4 4 3 3 3 3 3 3 2 3 3 3 3 3 3 3 3 2
16 16 16 16 16 17 17 17 17 17 17 16 16 17 16 16 15 14 13 11 10 8 7 7 6 6 5 5 4 3 3 3 3 3 2 2 2 3 3 3 3 3 3 2 2
16 16 16 16 16 16 16 15 15 15 15 15 15 15 15 15 15 14 13 11 9 7 6 6 5 5 5 5 4 3 3 3 3 3 3 2 3 3 4 3 3 3 3 2 2
15 15 14 13 13 13 13 12 11 11 11 11 11 12 12 13 14 13 12 11 8 6 5 5 5 5 5 4 4 3 3 3 3 3 3 3 3 4 4 4 3 3 3 2 2
13 12 10 9 9 9 9 8 8 7 7 7 7 7 9 10 11 11 11 10 8 7 6 6 6 6 5 4 4 4 4 4 4 3 3 4 4 5 5 4 3 3 3 2 2
9 8 7 6 6 6 6 6 5 4 4 4 4 4 6 6 7 8 9 9 8 7 7 6 7 6 5 5 4 4 5 5 4 4 4 4 5 5 4 3 3 3 2 2 2
6 6 5 5 5 5 5 4 3 3 2 3 3 3 4 4 4 5 6 7 7 7 7 7 7 7 6 5 5 5 5 4 3 3 3 4 5 4 3 3 3 3 3 3 3
5 5 5 5 4 4 4 3 3 2 2 2 2 2 2 2 2 3 4 5 6 6 6 6 7 7 7 6 6 5 4 3 2 1 2 3 4 3 2 3 3 3 3 3 3
4 4 4 3 3 3 3 2 2 2 2 1 2 2 2 2 2 2 2 3 4 4 5 5 5 7 7 7 6 5 4 3 1 1 2 3 3 2 2 2 3 3 3 3 3
4 4 3 2 2 2 2 1 2 1 1 1 1 1 2 2 2 2 2 2 3 4 4 5 5 6 7 7 6 6 5 4 3 2 2 2 3 2 2 2 2 2 2 3 3
4 3 2 1 1 1 1 1 1 1 1 1 1 1 2 2 2 2 2 1 2 3 4 5 5 6 6 6 6 6 6 5 4 2 1 1 2 2 2 2 2 2 2 2 3
3 3 2 1 1 1 1 1 1 1 1 1 1 1 1 2 2 2 2 2 2 3 4 5 5 5 5 6 6 6 6 5 4 3 1 1 1 2 2 2 2 2 2 3 3
3 3 2 1 1 1 1 1 1 1 1 0 0 1 1 2 2 2 3 3 3 3 4 4 5 5 5 6 6 6 5 5 4 3 2 1 1 2 2 2 1 1 2 3 3
3 3 2 1 1 1 1 1 1 1 1 1 1 1 1 2 2 2 3 3 4 4 4 4 4 4 4 5 6 6 6 5 5 4 3 2 1 2 2 2 2 2 3 3 2
3 3 2 2 2 2 2 2 1 1 1 1 1 1 1 1 2 2 3 3 4 4 4 5 5 5 5 5 6 6 6 6 6 5 3 2 2 2 2 2 2 3 3 2 2
4 3 3 2 2 2 2 2 2 1 1 1 1 1 1 1 2 2 2 3 4 4 5 5 5 5 5 6 6 6 6 6 6 5 4 3 2 2 2 2 3 3 3 2 2
4 4 3 3 2 2 2 2 1 1 1 1 1 1 1 2 2 2 2 3 4 4 5 5 5 5 5 6 6 6 6 6 6 6 5 4 2 2 3 3 3 3 2 2 2
4 4 4 3 2 2 1 1 1 1 1 1 1 1 1 2 2 2 3 4 4 4 5 5 5 4 4 5 5 5 6 6 6 6 6 4 2 3 3 3 3 2 2 2 1